Location: West Sayville
(40.7279°N, 73.0976°W)
Time: 04:42:30
(UTC+00:00)

Lacrosse 5 - Pass Details

Date: 29 October 2020
Orbit: 716 x 723 km, 57.0° (Epoch: 06 November)

Event Time Altitude Azimuth Distance (km) Brightness Sun altitude
Rises 23:09:56 0° 314° (NW) 3,123 5.8 -15.3°
Reaches altitude 10° 23:13:38 10° 341° (NNW) 2,203 4.6 -16.0°
Maximum altitude 23:16:04 13° 10° (N) 1,981 4.0 -16.5°
Enters shadow 23:17:47 12° 31° (NNE) 2,093 3.9 -16.8°
